Weather History for Lincoln, IL

Change the Weather History Date:

Friday, October 5, 2012

  Actual Average (KSPI) Record (KSPI)
Temperature  
Mean Temperature 45 °F 59 °F  
Max Temperature 50 °F 71 °F 89 °F (1981)
Min Temperature 40 °F 47 °F 28 °F (2004)
Degree Days  
Heating Degree Days 20 8  
Month to date heating degree days 35  
Since 1 July heating degree days 116  
Cooling Degree Days 0 1  
Month to date cooling degree days 7  
Year to date cooling degree days 1106  
Moisture  
Dew Point 40 °F    
Average Humidity 82    
Maximum Humidity 95    
Minimum Humidity 70    
Precipitation  
Precipitation 0.00 in 0.10 in 2.41 in (1955)
Month to date precipitation 0.50  
Year to date precipitation 29.05  
Snow  
Snow 0.00 in 0.00 in 0.00 in ()
Month to date snowfall 0.0  
Since 1 July snowfall 0.0  
Since 1 September snowfall 0.0  
Snow Depth -    
Sea Level Pressure  
Sea Level Pressure 30.19 in    
Wind  
Wind Speed 4 mph (NW)    
Max Wind Speed 7 mph    
Max Gust Speed 16 mph    
Visibility 9 miles    
Events Rain , Thunderstorm    
T = Trace of Precipitation, MM = Missing Value Source: NWS Daily Summary

Daily Weather History Graph

Daily Weather History Graph

Search for Another Location

Airport:

Trip Planner

Search our weather history database for the weather conditions in past years. The results will help you decide how hot, cold, wet, or windy it might be!

Date:

Astronomy

Oct. 05, 2012 Rise Set
Actual Time 6:58 AM CDT 6:32 PM CDT
Civil Twilight 6:31 AM CDT 6:59 PM CDT
Nautical Twilight 5:59 AM CDT 7:30 PM CDT
Astronomical Twilight 5:28 AM CDT 8:02 PM CDT
Moon 9:55 PM CDT (10/5) 12:06 PM CDT (10/5)
Length of Visible Light 12h 28m
Length of Day
11h 34m
Waning Gibbous, 74% of the Moon is Illuminated
Oct 5
Waning Gibbous
Oct 8
Last Quarter
Oct 15
New
Oct 21
First Quarter
Oct 29
Full

Hourly Weather History & Observations

Time (CDT) Temp. Windchill Dew Point Humidity Pressure Visibility Wind Dir Wind Speed Gust Speed Precip Events Conditions
12:15 AM 50.2 °F - 48.2 °F 93% 30.19 in 7.0 mi West 3.5 mph - N/A Rain Rain
12:35 AM 50.0 °F - 48.4 °F 94% 30.20 in 10.0 mi West 4.6 mph - N/A Rain Rain
12:55 AM 50.0 °F - 47.3 °F 90% 30.18 in 5.0 mi Calm Calm - N/A Rain Heavy Rain
1:15 AM 50.0 °F - 47.8 °F 92% 30.21 in 10.0 mi WNW 5.8 mph - N/A Rain , Thunderstorm Light Thunderstorms and Rain
1:35 AM 49.1 °F - 47.1 °F 93% 30.22 in 7.0 mi NW 5.8 mph 16.1 mph N/A Rain Rain
1:55 AM 48.6 °F - 46.8 °F 93% 30.19 in 5.0 mi North 4.6 mph - N/A Rain Heavy Rain
2:15 AM 48.6 °F - 46.8 °F 93% 30.18 in 4.0 mi North 4.6 mph - N/A Rain Heavy Rain
2:35 AM 48.2 °F - 46.4 °F 93% 30.22 in 5.0 mi North 4.6 mph - N/A Rain Heavy Rain
2:55 AM 47.1 °F - 45.3 °F 93% 30.21 in 4.0 mi NNW 4.6 mph - N/A Rain Rain
3:15 AM 47.3 °F - 45.9 °F 95% 30.20 in 7.0 mi NNW 4.6 mph - N/A Rain , Thunderstorm Light Thunderstorms and Rain
3:35 AM 47.5 °F - 45.7 °F 93% 30.19 in 10.0 mi North 6.9 mph - N/A Rain Rain
3:55 AM 47.1 °F - 44.6 °F 91% 30.22 in 7.0 mi NW 5.8 mph - N/A Rain Rain
4:15 AM 46.4 °F - 43.9 °F 91% 30.22 in 4.0 mi Calm Calm - N/A Rain Heavy Rain
4:35 AM 46.0 °F 44.8 °F 44.2 °F 93% 30.22 in 5.0 mi NNW 3.5 mph - N/A Rain Rain
4:55 AM 45.7 °F 43.4 °F 43.9 °F 93% 30.19 in 10.0 mi North 4.6 mph - N/A Rain Light Rain
5:15 AM 45.9 °F - 44.1 °F 93% 30.22 in 7.0 mi Calm Calm - N/A Rain , Thunderstorm Rain
5:35 AM 45.7 °F - 43.9 °F 93% 30.22 in 10.0 mi Calm Calm - N/A Rain , Thunderstorm Light Thunderstorms and Rain
5:55 AM 45.9 °F - 44.2 °F 94% 30.20 in 7.0 mi Calm Calm - N/A Rain Rain
6:15 AM 45.7 °F - 43.9 °F 93% 30.20 in 7.0 mi Calm Calm - N/A Rain Light Rain
6:35 AM 45.9 °F - 44.1 °F 93% 30.22 in 7.0 mi Calm Calm - N/A Rain Light Rain
6:55 AM 45.7 °F - 43.5 °F 92% 30.21 in 10.0 mi Calm Calm - N/A Rain Light Rain
7:15 AM 45.7 °F 44.4 °F 42.8 °F 90% 30.21 in 10.0 mi NW 3.5 mph - N/A   Overcast
7:35 AM 45.9 °F - 43.2 °F 90% 30.22 in 10.0 mi Calm Calm - N/A   Overcast
7:55 AM 46.0 °F - 43.3 °F 90% 30.22 in 10.0 mi Calm Calm - N/A   Overcast
8:15 AM 46.4 °F 44.3 °F 43.0 °F 88% 30.19 in 10.0 mi North 4.6 mph - N/A   Drizzle
8:35 AM 46.4 °F - 43.0 °F 88% 30.21 in 10.0 mi Calm Calm - N/A   Light Drizzle
8:55 AM 46.0 °F 43.9 °F 42.4 °F 87% 30.22 in 10.0 mi NW 4.6 mph - N/A   Overcast
9:15 AM 46.4 °F - 42.1 °F 85% 30.20 in 10.0 mi Calm Calm - N/A   Overcast
9:35 AM 46.4 °F 45.2 °F 41.5 °F 83% 30.22 in 10.0 mi NW 3.5 mph - N/A   Overcast
9:55 AM 46.9 °F - 41.5 °F 81% 30.20 in 10.0 mi NNW 5.8 mph - N/A Rain , Thunderstorm Light Thunderstorms and Rain
10:15 AM 46.8 °F - 38.8 °F 74% 30.21 in 10.0 mi NNW 4.6 mph - N/A   Overcast
10:35 AM 46.9 °F - 39.7 °F 76% 30.22 in 10.0 mi NNW 4.6 mph - N/A   Overcast
10:55 AM 47.3 °F - 38.3 °F 71% 30.21 in 10.0 mi NNW 4.6 mph - N/A   Overcast
11:15 AM 46.4 °F 42.9 °F 39.2 °F 76% 30.19 in 10.0 mi NNW 6.9 mph - N/A Rain Light Rain
11:35 AM 46.9 °F - 39.2 °F 74% 30.19 in 10.0 mi NNW 3.5 mph - N/A   Overcast
11:55 AM 46.9 °F - 37.8 °F 70% 30.20 in 10.0 mi Calm Calm - N/A   Overcast
12:15 PM 46.9 °F - 38.3 °F 72% 30.19 in 10.0 mi NW 5.8 mph - N/A   Overcast
12:35 PM 47.3 °F - 39.0 °F 73% 30.18 in 10.0 mi NNW 5.8 mph - N/A   Overcast
12:55 PM 47.3 °F - 38.5 °F 71% 30.19 in 10.0 mi WNW 4.6 mph - N/A   Overcast
1:35 PM 47.3 °F - 39.4 °F 74% 30.17 in 10.0 mi NW 3.5 mph - N/A   Overcast
1:55 PM 47.1 °F - 38.8 °F 73% 30.16 in 10.0 mi NW 3.5 mph - N/A   Overcast
2:15 PM 47.1 °F - 39.4 °F 74% 30.15 in 10.0 mi NW 4.6 mph - N/A   Overcast
2:35 PM 46.6 °F - 39.4 °F 76% 30.14 in 10.0 mi WNW 4.6 mph - N/A   Light Drizzle
2:55 PM 46.9 °F - 38.7 °F 73% 30.16 in 10.0 mi WNW 6.9 mph - N/A   Overcast
3:15 PM 46.9 °F - 39.2 °F 74% 30.16 in 10.0 mi NW 4.6 mph - N/A   Overcast
3:35 PM 46.8 °F - 38.7 °F 73% 30.15 in 10.0 mi NW 5.8 mph - N/A   Overcast
3:55 PM 46.6 °F - 38.1 °F 72% 30.17 in 10.0 mi WNW 4.6 mph - N/A   Overcast
4:15 PM 46.4 °F 43.5 °F 37.0 °F 70% 30.17 in 10.0 mi WNW 5.8 mph - N/A   Overcast
4:35 PM 46.4 °F 44.3 °F 37.0 °F 70% 30.17 in 10.0 mi NW 4.6 mph - N/A   Overcast
4:55 PM 46.4 °F 44.3 °F 38.5 °F 74% 30.16 in 10.0 mi NW 4.6 mph - N/A Rain Light Rain
5:15 PM 46.0 °F 42.5 °F 37.8 °F 73% 30.17 in 10.0 mi NW 6.9 mph - N/A   Overcast
5:35 PM 45.9 °F 42.9 °F 37.6 °F 73% 30.17 in 10.0 mi WNW 5.8 mph - N/A   Overcast
5:55 PM 45.5 °F 43.2 °F 37.0 °F 72% 30.16 in 10.0 mi NW 4.6 mph - N/A   Overcast
6:15 PM 45.5 °F 44.2 °F 36.9 °F 72% 30.16 in 10.0 mi NW 3.5 mph - N/A Rain Light Rain
6:35 PM 44.8 °F 43.3 °F 36.7 °F 73% 30.15 in 10.0 mi NW 3.5 mph - N/A   Drizzle
6:55 PM 44.6 °F 41.4 °F 36.3 °F 73% 30.15 in 10.0 mi WNW 5.8 mph - N/A   Overcast
7:15 PM 44.1 °F - 36.1 °F 74% 30.16 in 10.0 mi Calm Calm - N/A   Mostly Cloudy
7:35 PM 43.3 °F 41.7 °F 36.1 °F 76% 30.15 in 10.0 mi NW 3.5 mph - N/A   Scattered Clouds
7:55 PM 42.8 °F 41.1 °F 35.8 °F 76% 30.15 in 10.0 mi West 3.5 mph - N/A   Scattered Clouds
8:15 PM 43.2 °F - 36.1 °F 76% 30.15 in 10.0 mi Calm Calm - N/A   Mostly Cloudy
8:35 PM 43.2 °F 39.7 °F 36.5 °F 77% 30.16 in 10.0 mi WNW 5.8 mph - N/A   Overcast
8:55 PM 42.4 °F 39.6 °F 36.7 °F 80% 30.17 in 10.0 mi WNW 4.6 mph - N/A   Scattered Clouds
9:15 PM 41.9 °F 38.2 °F 36.5 °F 81% 30.16 in 10.0 mi WNW 5.8 mph - N/A   Scattered Clouds
9:35 PM 42.4 °F 39.6 °F 36.3 °F 79% 30.17 in 10.0 mi WNW 4.6 mph - N/A   Overcast
9:55 PM 42.4 °F 38.8 °F 35.6 °F 77% 30.17 in 10.0 mi WNW 5.8 mph - N/A   Overcast
10:15 PM 42.8 °F 39.3 °F 35.6 °F 76% 30.17 in 10.0 mi WNW 5.8 mph - N/A   Scattered Clouds
10:35 PM 41.4 °F 39.4 °F 35.1 °F 78% 30.18 in 10.0 mi WNW 3.5 mph - N/A   Clear
10:55 PM 41.0 °F 37.1 °F 34.7 °F 78% 30.18 in 10.0 mi West 5.8 mph - N/A   Clear
11:15 PM 40.5 °F 38.4 °F 34.7 °F 80% 30.18 in 10.0 mi WNW 3.5 mph - N/A   Clear
11:35 PM 40.3 °F 38.2 °F 34.5 °F 80% 30.18 in 10.0 mi West 3.5 mph - N/A   Clear
11:55 PM 40.1 °F 38.0 °F 34.3 °F 80% 30.17 in 10.0 mi West 3.5 mph - N/A   Clear